Auburn, CA

10:48 PM PST on November 12, 2019 (GMT -0800)
Auburn Municipal

Weather History for KAUN - September, 2019

Change the Weather History Date:

Tuesday, September 17, 2019

  Actual Average Record
Temperature  
Mean Temperature 63 °F -  
Max Temperature 75 °F 84 °F 100 °F (1971)
Min Temperature 51 °F 56 °F 46 °F (1954)
Degree Days  
Heating Degree Days 2    
Growing Degree Days 13 (Base 50)    
Moisture  
Dew Point 46 °F    
Average Humidity 58    
Maximum Humidity 82    
Minimum Humidity 31    
Precipitation  
Precipitation 0.00 in - - ()
Sea Level Pressure  
Sea Level Pressure 30.02 in    
Wind  
Wind Speed 4 mph ()    
Max Wind Speed 9 mph    
Max Gust Speed 12 mph    
Visibility 10.0 miles    
Events      
Averages and records for this station are not official NWS values.
T = Trace of Precipitation, MM = Missing Value Source: Averaged Metar Reports

Daily Weather History Graph

Daily Weather History Graph

Search for Another Location

Airport or City:

Astronomy

Sep. 17, 2019 Rise Set
Actual Time 6:47 AM PDT 7:09 PM PDT
Civil Twilight 6:20 AM PDT 7:36 PM PDT
Nautical Twilight 5:49 AM PDT 8:07 PM PDT
Astronomical Twilight 5:17 AM PDT 8:39 PM PDT
Moon 9:16 PM PDT (9/17) 9:55 AM PDT (9/17)
Length of Visible Light 13h 15m
Length of Day
12h 22m
Waning Gibbous, 88% of the Moon is Illuminated
Sep 17
Waning Gibbous
Sep 21
Last Quarter
Sep 28
New
Oct 5
First Quarter
Oct 13
Full

Hourly Weather History & Observations

Time (PDT) Temp. Dew Point Humidity Pressure Visibility Wind Dir Wind Speed Gust Speed Precip Events Conditions
12:15 AM 55.4 °F 46.4 °F 72% 30.01 in 10.0 mi East 8.1 mph - N/A   Clear
12:35 AM 55.4 °F 46.4 °F 72% 30.01 in 10.0 mi East 9.2 mph - N/A   Clear
12:55 AM 55.4 °F 46.4 °F 72% 30.01 in 10.0 mi East 9.2 mph - N/A   Clear
1:15 AM 53.6 °F 46.4 °F 77% 30.02 in 10.0 mi East 8.1 mph - N/A   Clear
1:35 AM 53.6 °F 46.4 °F 77% 30.02 in 10.0 mi East 8.1 mph - N/A   Clear
1:55 AM 53.6 °F 46.4 °F 77% 30.02 in 10.0 mi East 8.1 mph - N/A   Clear
2:15 AM 53.6 °F 46.4 °F 77% 30.02 in 10.0 mi East 8.1 mph - N/A   Clear
2:35 AM 53.6 °F 46.4 °F 77% 30.03 in 10.0 mi East 9.2 mph - N/A   Clear
2:55 AM 53.6 °F 44.6 °F 72% 30.03 in 10.0 mi East 8.1 mph - N/A   Clear
3:15 AM 53.6 °F 44.6 °F 72% 30.03 in 10.0 mi Calm Calm - N/A   Clear
3:35 AM 53.6 °F 44.6 °F 72% 30.03 in 10.0 mi Calm Calm - N/A   Clear
3:55 AM 51.8 °F 46.4 °F 82% 30.04 in 10.0 mi Calm Calm - N/A   Clear
4:15 AM 51.8 °F 46.4 °F 82% 30.04 in 10.0 mi East 5.8 mph - N/A   Clear
4:35 AM 51.8 °F 46.4 °F 82% 30.04 in 10.0 mi East 3.5 mph - N/A   Clear
4:55 AM 51.8 °F 46.4 °F 82% 30.04 in 10.0 mi East 4.6 mph - N/A   Clear
5:15 AM 51.8 °F 44.6 °F 76% 30.05 in 10.0 mi Calm Calm - N/A   Clear
5:35 AM 51.8 °F 44.6 °F 76% 30.04 in 10.0 mi East 6.9 mph - N/A   Clear
5:55 AM 51.8 °F 44.6 °F 76% 30.04 in 10.0 mi East 6.9 mph - N/A   Clear
6:15 AM 51.8 °F 44.6 °F 76% 30.04 in 10.0 mi East 5.8 mph - N/A   Clear
6:35 AM 51.8 °F 44.6 °F 76% 30.05 in 10.0 mi Calm Calm - N/A   Clear
6:55 AM 51.8 °F 44.6 °F 76% 30.05 in 10.0 mi East 6.9 mph - N/A   Clear
7:15 AM 53.6 °F 44.6 °F 72% 30.05 in 10.0 mi East 4.6 mph - N/A   Clear
7:35 AM 53.6 °F 44.6 °F 72% 30.06 in 10.0 mi ENE 3.5 mph - N/A   Clear
7:55 AM 55.4 °F 44.6 °F 67% 30.06 in 10.0 mi East 4.6 mph - N/A   Clear
8:15 AM 57.2 °F 44.6 °F 63% 30.06 in 10.0 mi East 4.6 mph - N/A   Clear
8:35 AM 59.0 °F 44.6 °F 59% 30.07 in 10.0 mi East 5.8 mph - N/A   Clear
8:55 AM 60.8 °F 46.4 °F 59% 30.07 in 10.0 mi East 6.9 mph - N/A   Clear
9:15 AM 62.6 °F 46.4 °F 55% 30.07 in 10.0 mi East 5.8 mph - N/A   Clear
9:35 AM 64.4 °F 46.4 °F 52% 30.07 in 10.0 mi Calm Calm - N/A   Clear
9:55 AM 66.2 °F 46.4 °F 49% 30.07 in 10.0 mi Calm Calm - N/A   Clear
10:55 AM 68.0 °F 48.2 °F 49% 30.06 in 10.0 mi Calm Calm - N/A   Clear
11:15 AM 69.8 °F 46.4 °F 43% 30.06 in 10.0 mi Calm Calm - N/A   Clear
11:35 AM 69.8 °F 46.4 °F 43% 30.06 in 10.0 mi Calm Calm - N/A   Clear
11:55 AM 71.6 °F 50.0 °F 46% 30.07 in 10.0 mi WSW 5.8 mph - N/A   Clear
12:15 PM 71.6 °F 50.0 °F 46% 30.07 in 10.0 mi WSW 5.8 mph - N/A   Clear
12:35 PM 71.6 °F 48.2 °F 43% 30.07 in 10.0 mi WSW 4.6 mph 11.5 mph N/A   Clear
12:55 PM 71.6 °F 46.4 °F 41% 30.06 in 10.0 mi Variable 4.6 mph - N/A   Clear
1:15 PM 71.6 °F 44.6 °F 38% 30.05 in 10.0 mi Variable 4.6 mph - N/A   Clear
1:55 PM 73.4 °F 44.6 °F 36% 30.05 in 10.0 mi Variable 4.6 mph - N/A   Clear
2:15 PM 75.2 °F 42.8 °F 31% 30.04 in 10.0 mi West 6.9 mph - N/A   Clear
2:35 PM 73.4 °F 42.8 °F 33% 30.04 in 10.0 mi Calm Calm - N/A   Clear
2:55 PM 75.2 °F 44.6 °F 34% 30.03 in 10.0 mi Calm Calm - N/A   Clear
3:15 PM 75.2 °F 44.6 °F 34% 30.03 in 10.0 mi Variable 6.9 mph - N/A   Clear
3:35 PM 75.2 °F 44.6 °F 34% 30.02 in 10.0 mi WNW 4.6 mph 11.5 mph N/A   Clear
3:55 PM 75.2 °F 42.8 °F 31% 30.02 in 10.0 mi WSW 4.6 mph - N/A   Clear
4:15 PM 73.4 °F 42.8 °F 33% 30.01 in 10.0 mi Calm Calm - N/A   Clear
4:35 PM 73.4 °F 44.6 °F 36% 30.01 in 10.0 mi WSW 6.9 mph - N/A   Clear
4:55 PM 73.4 °F 44.6 °F 36% 30.01 in 10.0 mi Calm Calm - N/A   Clear
5:15 PM 73.4 °F 44.6 °F 36% 30.00 in 10.0 mi West 5.8 mph - N/A   Clear
5:35 PM 73.4 °F 44.6 °F 36% 30.00 in 10.0 mi WSW 4.6 mph - N/A   Clear
5:55 PM 73.4 °F 42.8 °F 33% 30.00 in 10.0 mi WSW 3.5 mph - N/A   Clear
6:15 PM 71.6 °F 42.8 °F 35% 29.99 in 10.0 mi Calm Calm - N/A   Clear
6:35 PM 69.8 °F 44.6 °F 40% 29.99 in 10.0 mi Calm Calm - N/A   Clear
6:55 PM 68.0 °F 44.6 °F 43% 29.99 in 10.0 mi Calm Calm - N/A   Clear
7:15 PM 66.2 °F 46.4 °F 49% 29.98 in 10.0 mi Calm Calm - N/A   Clear
7:35 PM 60.8 °F 50.0 °F 68% 29.98 in 10.0 mi Calm Calm - N/A   Clear
7:55 PM 59.0 °F 50.0 °F 72% 29.98 in 10.0 mi Calm Calm - N/A   Clear
8:15 PM 59.0 °F 50.0 °F 72% 29.98 in 10.0 mi Calm Calm - N/A   Clear
8:35 PM 57.2 °F 50.0 °F 77% 29.98 in 10.0 mi Calm Calm - N/A   Clear
8:55 PM 59.0 °F 50.0 °F 72% 29.99 in 10.0 mi Calm Calm - N/A   Clear
9:15 PM 62.6 °F 48.2 °F 59% 29.99 in 10.0 mi Calm Calm - N/A   Clear
9:35 PM 62.6 °F 48.2 °F 59% 29.99 in 10.0 mi Calm Calm - N/A   Clear
9:55 PM 60.8 °F 48.2 °F 63% 29.99 in 10.0 mi Calm Calm - N/A   Clear
10:15 PM 60.8 °F 48.2 °F 63% 29.98 in 10.0 mi ESE 5.8 mph - N/A   Clear
10:35 PM 60.8 °F 48.2 °F 63% 29.97 in 10.0 mi Calm Calm - N/A   Clear
10:55 PM 60.8 °F 46.4 °F 59% 29.97 in 10.0 mi ESE 6.9 mph - N/A   Clear
11:15 PM 60.8 °F 46.4 °F 59% 29.97 in 10.0 mi ESE 5.8 mph - N/A   Clear
11:35 PM 59.0 °F 48.2 °F 67% 29.97 in 10.0 mi East 6.9 mph - N/A   Clear
11:55 PM 59.0 °F 46.4 °F 63% 29.97 in 10.0 mi Calm Calm - N/A   Clear